GW4373 Weather Reports


time (UTC)temp
F
wind
direction
speed
knots
gust
knots
rain 1hr
in
rain 24hr
in
rain mn
in
humidity
%
barometer
mb
20260509112851 67 264 0.0 0.0 0.00 0.00 0.00 95 1007.2
20260509112348 67 273 0.0 0.0 0.00 0.00 0.00 95 1007.5
20260509111846 67 273 0.0 0.0 0.00 0.00 0.00 95 1007.2
20260509111342 67 270 0.0 0.0 0.00 0.00 0.00 95 1007.2
20260509110840 67 287 0.0 0.0 0.00 0.00 0.00 95 1007.5
20260509110336 67 312 0.0 0.0 0.00 0.00 0.00 95 1007.2
20260509105834 67 313 0.0 0.0 0.00 0.00 0.00 95 1007.2
20260509105332 67 313 0.0 0.0 0.00 0.00 0.00 95 1006.8
20260509104828 67 312 0.0 0.0 0.00 0.00 0.00 95 1006.5
20260509104325 67 312 0.0 0.0 0.00 0.00 0.00 95 1006.5
20260509103823 67 30 0.0 0.0 0.00 0.00 0.00 95 1006.5
20260509103320 67 30 0.0 0.0 0.00 0.00 0.00 94 1006.5
20260509102819 67 30 0.0 0.0 0.00 0.00 0.00 94 1006.8
20260509102316 67 30 0.0 0.0 0.00 0.00 0.00 94 1006.5
20260509101812 68 30 0.0 0.0 0.00 0.00 0.00 93 1006.8
20260509101308 68 30 0.0 0.0 0.00 0.00 0.00 93 1006.5
20260509100806 69 30 0.0 0.0 0.00 0.00 0.00 93 1006.8
20260509100303 69 30 0.0 0.0 0.00 0.00 0.00 93 1006.5
20260509095759 69 31 0.0 0.0 0.00 0.00 0.00 93 1006.2
20260509095257 69 31 0.0 0.0 0.00 0.00 0.00 93 1006.2
20260509094753 69 138 0.0 0.0 0.00 0.00 0.00 92 1005.7
20260509094250 69 19 0.0 0.0 0.00 0.00 0.00 92 1005.7
20260509093748 69 19 0.0 0.0 0.00 0.00 0.00 92 1005.7
20260509093245 69 30 0.0 0.0 0.00 0.00 0.00 92 1005.7
20260509092744 69 30 0.0 0.0 0.00 0.00 0.00 92 1005.7
20260509092241 70 38 0.0 0.0 0.00 0.00 0.00 92 1005.7
20260509091739 70 228 3.5 4.3 0.00 0.00 0.00 92 1005.7
20260509091235 70 51 1.7 1.7 0.00 0.00 0.00 92 1005.7
20260509090734 70 54 1.7 1.7 0.00 0.00 0.00 92 1005.7
20260509090230 70 36 0.0 0.0 0.00 0.00 0.00 91 1006.2
20260509085727 70 42 0.0 0.0 0.00 0.00 0.00 91 1005.7
20260509085224 70 287 1.7 1.7 0.00 0.00 0.00 91 1005.7
20260509084721 70 320 2.6 2.6 0.00 0.00 0.00 90 1005.4
20260509084217 71 318 1.7 1.7 0.00 0.00 0.00 90 1005.4
20260509083716 71 82 2.6 3.5 0.00 0.00 0.00 89 1005.4
20260509083212 71 60 2.6 2.6 0.00 0.00 0.00 89 1005.4
20260509082709 71 309 4.3 5.2 0.00 0.00 0.00 89 1004.4
20260509082205 71 252 0.0 0.0 0.00 0.00 0.00 89 1004.4
20260509081702 71 247 0.0 0.0 0.00 0.00 0.00 89 1004.4
20260509081159 71 256 0.0 0.0 0.00 0.00 0.00 89 1004.4
20260509080658 71 188 0.0 0.0 0.00 0.00 0.00 89 1004.4
20260509080155 71 241 0.0 0.0 0.00 0.00 0.00 89 1004.4
20260509075653 71 107 0.0 0.0 0.00 0.00 0.00 89 1005.0
20260509075151 71 241 0.0 0.0 0.00 0.00 0.00 89 1005.0
20260509074647 71 88 0.0 0.0 0.00 0.00 0.00 88 1005.0
20260509074144 71 63 0.0 0.0 0.00 0.00 0.00 88 1005.4
20260509073641 71 221 0.0 0.0 0.00 0.00 0.00 88 1006.2
20260509073137 71 188 0.0 0.0 0.00 0.00 0.00 88 1006.5
20260509072634 71 188 0.0 0.0 0.00 0.00 0.00 88 1006.5
20260509072131 71 231 0.0 0.0 0.00 0.00 0.00 88 1006.5
20260509071627 71 185 0.0 0.0 0.00 0.00 0.00 89 1006.5
20260509071125 71 246 0.0 0.0 0.00 0.00 0.00 89 1006.5
20260509070622 71 273 0.0 0.0 0.00 0.00 0.00 89 1006.8
20260509070118 70 200 0.0 0.0 0.00 0.00 0.00 89 1006.8
20260509065613 70 204 0.0 0.0 0.00 0.00 0.00 89 1006.8
20260509065110 70 212 0.0 0.0 0.00 0.00 0.00 89 1006.8
20260509064607 70 215 1.7 1.7 0.00 0.00 0.00 89 1007.5
20260509064106 70 214 0.0 0.0 0.00 0.00 0.00 89 1007.5
20260509063601 70 193 0.0 0.0 0.00 0.00 0.00 89 1007.5
20260509063058 70 221 0.0 0.0 0.00 0.00 0.00 89 1007.9
20260509062555 70 222 0.9 0.9 0.00 0.00 0.00 89 1007.9
20260509062053 70 228 0.0 0.0 0.00 0.00 0.00 89 1007.9
20260509061549 70 228 0.0 0.0 0.00 0.00 0.00 89 1007.9
20260509061047 70 228 0.0 0.0 0.00 0.00 0.00 89 1007.9
20260509060544 69 242 0.0 0.0 0.00 0.00 0.00 89 1007.5
20260509060040 69 242 0.0 0.0 0.00 0.00 0.00 89 1007.9
20260509055536 69 242 0.0 0.0 0.00 0.00 0.00 90 1007.5
20260509055032 69 240 0.0 0.0 0.00 0.00 0.00 90 1007.5
20260509054529 69 252 0.0 0.0 0.00 0.00 0.00 90 1007.9
20260509054027 69 252 0.0 0.0 0.00 0.00 0.00 90 1007.9
20260509053525 69 252 0.0 0.0 0.00 0.00 0.00 90 1008.2
20260509053016 69 252 0.0 0.0 0.00 0.00 0.00 89 1007.9
20260509052513 69 252 0.0 0.0 0.00 0.00 0.00 88 1008.2
20260509052011 69 252 0.0 0.0 0.00 0.00 0.00 88 1008.2
20260509051509 70 252 0.0 0.0 0.00 0.00 0.00 87 1008.5
20260509051006 71 252 0.0 0.0 0.00 0.00 0.00 86 1008.9
20260509050502 71 252 0.0 0.0 0.00 0.00 0.00 85 1008.9
20260509045959 71 252 0.0 0.0 0.00 0.02 0.02 85 1009.2
20260509045456 71 252 0.0 0.0 0.00 0.02 0.02 85 1009.6
20260509044953 71 324 0.0 0.0 0.00 0.02 0.02 85 1009.6
20260509044451 71 306 1.7 1.7 0.00 0.02 0.02 85 1009.6
20260509043948 70 318 4.3 4.3 0.00 0.02 0.02 86 1009.2
20260509043443 70 312 0.0 0.0 0.00 0.02 0.02 87 1008.2
20260509042939 71 221 0.0 0.0 0.00 0.02 0.02 87 1007.9
20260509042437 71 221 0.0 0.0 0.00 0.02 0.02 86 1007.9
20260509041932 71 221 0.0 0.0 0.00 0.02 0.02 86 1007.9
20260509041429 71 221 0.0 0.0 0.00 0.02 0.02 86 1008.2
20260509040927 71 221 0.0 0.0 0.00 0.02 0.02 85 1008.2
20260509040425 71 221 0.0 0.0 0.00 0.02 0.02 86 1008.2
20260509035922 71 221 0.0 0.0 0.00 0.02 0.02 86 1008.2
20260509035419 71 221 0.0 0.0 0.00 0.02 0.02 86 1007.5
20260509034915 71 221 0.0 0.0 0.00 0.02 0.02 85 1007.2
20260509034413 71 221 0.0 0.0 0.00 0.02 0.02 85 1007.2
20260509033910 71 221 0.0 0.0 0.00 0.02 0.02 85 1007.2
20260509033407 71 221 0.0 0.0 0.00 0.02 0.02 85 1007.2
20260509032903 71 221 0.0 0.0 0.00 0.02 0.02 84 1007.2
20260509032400 71 221 0.0 0.0 0.00 0.02 0.02 84 1006.8
20260509031859 71 252 0.0 0.0 0.00 0.02 0.02 84 1007.2
20260509031356 71 28 0.0 0.0 0.00 0.02 0.02 84 1007.5
20260509030853 71 27 0.0 0.0 0.00 0.02 0.02 84 1008.2
20260509030351 71 27 0.0 0.0 0.00 0.02 0.02 84 1008.5
20260509025848 71 308 0.0 0.0 0.00 0.02 0.02 85 1008.5
20260509025343 71 11 0.0 0.0 0.00 0.02 0.02 85 1008.5
20260509024839 71 200 0.0 0.0 0.00 0.02 0.02 85 1008.2
20260509024335 71 210 0.0 0.0 0.00 0.02 0.02 86 1007.9
20260509023832 71 210 0.0 0.0 0.00 0.02 0.02 86 1007.5
20260509023330 71 210 0.0 0.0 0.00 0.02 0.02 86 1007.2
20260509022826 71 210 0.0 0.0 0.00 0.02 0.02 84 1007.2
20260509022324 71 210 0.0 0.0 0.00 0.02 0.02 84 1006.5
20260509021820 71 210 0.0 0.0 0.00 0.02 0.02 84 1006.5
20260509021317 71 210 0.0 0.0 0.00 0.02 0.02 83 1006.2
20260509020815 72 210 0.0 0.0 0.00 0.02 0.02 83 1006.2
20260509020313 72 210 0.0 0.0 0.00 0.02 0.02 82 1005.7
20260509015810 72 199 0.0 0.0 0.00 0.02 0.02 82 1006.2
20260509015308 72 342 0.0 0.0 0.00 0.02 0.02 82 1005.7
20260509014804 72 326 1.7 1.7 0.00 0.02 0.02 81 1006.2
20260509014302 72 326 0.0 0.0 0.00 0.02 0.02 81 1006.2
20260509013758 73 326 0.0 0.0 0.00 0.02 0.02 80 1005.7
20260509013254 73 294 0.0 0.0 0.00 0.02 0.02 79 1005.7
20260509012751 73 241 0.0 0.0 0.00 0.02 0.02 78 1005.7
20260509012247 74 240 0.0 0.0 0.00 0.02 0.02 77 1005.7
20260509011745 74 241 0.0 0.0 0.00 0.02 0.02 77 1006.5
20260509011242 74 241 0.0 0.0 0.00 0.02 0.02 76 1006.5
20260509010740 74 241 0.0 0.0 0.00 0.02 0.02 76 1006.5
20260509010237 74 241 0.0 0.0 0.00 0.02 0.02 75 1006.5
20260509005735 74 241 0.0 0.0 0.00 0.02 0.02 75 1006.5
20260509005232 75 234 0.0 0.0 0.00 0.02 0.02 75 1006.2
20260509004731 75 234 0.0 0.0 0.00 0.02 0.02 74 1006.2
20260509004229 75 234 0.0 0.0 0.00 0.02 0.02 74 1006.2
20260509003727 75 234 0.0 0.0 0.00 0.02 0.02 73 1006.2
20260509003224 76 227 0.0 0.0 0.00 0.02 0.02 72 1005.7
20260509002721 76 223 0.0 0.0 0.00 0.02 0.02 72 1005.7
20260509002219 76 223 0.0 0.0 0.00 0.02 0.02 72 1005.4
20260509001717 76 223 0.0 0.0 0.00 0.02 0.02 71 1005.7
20260509001212 76 72 3.5 3.5 0.00 0.02 0.02 71 1005.4
20260509000710 76 229 0.0 0.0 0.00 0.02 0.02 70 1005.4
20260509000207 77 222 1.7 1.7 0.00 0.02 0.02 70 1005.4
20260508235704 77 240 0.0 0.0 0.00 0.02 0.02 70 1005.4
20260508235200 77 241 0.0 0.0 0.00 0.02 0.02 69 1005.4
20260508234658 77 242 1.7 1.7 0.00 0.02 0.02 69 1005.7
20260508234154 77 217 0.0 0.0 0.00 0.02 0.02 69 1006.2
20260508233654 77 236 0.0 0.0 0.00 0.02 0.02 69 1006.2
20260508233151 77 247 1.7 1.7 0.00 0.02 0.02 69 1006.2
20260508232648 77 241 0.0 0.0 0.00 0.02 0.02 68 1005.7
20260508232145 78 222 0.9 0.9 0.00 0.02 0.02 67 1005.7
20260508231643 78 208 0.0 0.0 0.00 0.02 0.02 66 1006.2
20260508231139 78 236 0.0 0.0 0.00 0.02 0.02 67 1006.2
20260508230636 78 236 0.0 0.0 0.00 0.02 0.02 65 1005.7
20260508230132 77 252 0.0 0.0 0.00 0.02 0.02 66 1005.7
20260508225631 77 233 0.0 0.0 0.00 0.02 0.02 66 1005.7
20260508225126 78 227 0.0 0.0 0.00 0.02 0.02 67 1006.2
20260508224624 78 238 0.0 0.0 0.00 0.02 0.02 67 1006.2
20260508224122 78 242 0.0 0.0 0.00 0.02 0.02 68 1005.7
20260508223619 78 222 0.0 0.0 0.00 0.02 0.02 66 1005.7
20260508223116 78 209 0.9 0.9 0.00 0.02 0.02 65 1006.2
20260508222614 78 246 0.0 0.0 0.00 0.02 0.02 66 1006.2
20260508222111 78 233 0.0 0.0 0.00 0.02 0.02 68 1006.2
20260508221607 78 234 0.0 0.0 0.00 0.02 0.02 67 1006.2
20260508221103 77 108 0.0 0.0 0.00 0.02 0.02 66 1006.2
20260508220559 77 222 0.0 0.0 0.00 0.02 0.02 67 1006.2
20260508220055 77 239 0.0 0.0 0.00 0.02 0.02 66 1006.5
20260508215553 77 232 1.7 1.7 0.00 0.02 0.02 67 1006.5
20260508215049 78 234 0.0 0.0 0.00 0.02 0.02 66 1006.5
20260508214547 78 256 0.0 0.0 0.00 0.02 0.02 64 1006.5
20260508214043 78 36 0.0 0.0 0.00 0.02 0.02 63 1006.5
20260508213541 78 239 1.7 1.7 0.00 0.02 0.02 64 1006.5
20260508213036 78 252 0.0 0.0 0.00 0.02 0.02 64 1006.5
20260508212533 78 223 1.7 1.7 0.00 0.02 0.02 64 1006.2
20260508212029 78 102 0.0 0.0 0.00 0.02 0.02 63 1006.2
20260508211525 78 222 3.5 3.5 0.00 0.02 0.02 62 1006.5
20260508211021 78 204 0.0 0.0 0.00 0.02 0.02 63 1006.5
20260508210518 78 215 3.5 3.5 0.00 0.02 0.02 61 1006.5
20260508210016 78 246 0.0 0.0 0.00 0.02 0.02 62 1006.5
20260508205512 78 120 0.0 0.0 0.00 0.02 0.02 65 1006.8
20260508205008 78 240 0.0 0.0 0.00 0.02 0.02 65 1006.8
20260508204506 77 251 0.0 0.0 0.00 0.02 0.02 65 1007.2
20260508204001 78 234 0.0 0.0 0.00 0.02 0.02 65 1007.5
20260508203457 78 223 0.0 0.0 0.00 0.02 0.02 64 1007.9
20260508202953 78 213 2.6 3.5 0.00 0.02 0.02 63 1007.9
20260508202450 79 248 1.7 1.7 0.00 0.02 0.02 62 1008.2
20260508201947 78 252 0.0 0.0 0.00 0.02 0.02 65 1008.2
20260508201444 79 228 0.0 0.0 0.00 0.02 0.02 61 1008.2
20260508200941 80 210 0.0 0.0 0.00 0.02 0.02 61 1008.2
20260508200438 80 186 0.0 0.0 0.00 0.02 0.02 62 1007.9
20260508195932 79 233 0.0 0.0 0.00 0.02 0.02 63 1008.2
20260508195430 79 186 0.0 0.0 0.00 0.02 0.02 63 1008.2
20260508194926 79 216 0.0 0.0 0.00 0.02 0.02 63 1008.2
20260508194424 78 55 2.6 3.5 0.00 0.02 0.02 65 1008.2
20260508193921 78 235 0.0 0.0 0.00 0.02 0.02 63 1008.5
20260508193418 78 256 0.0 0.0 0.00 0.02 0.02 63 1008.2
20260508192914 78 204 0.0 0.0 0.00 0.02 0.02 63 1008.5
20260508192411 78 219 0.0 0.0 0.00 0.02 0.02 60 1008.5
20260508191908 78 232 0.0 0.0 0.00 0.02 0.02 62 1008.5
20260508191405 80 246 0.0 0.0 0.00 0.02 0.02 58 1008.2
20260508190902 80 260 0.0 0.0 0.00 0.02 0.02 58 1008.5
20260508190359 79 229 0.0 0.0 0.00 0.02 0.02 61 1008.5
20260508185855 78 84 0.0 0.0 0.00 0.02 0.02 63 1008.5
20260508185353 78 42 0.0 0.0 0.00 0.02 0.02 61 1008.5
20260508184850 78 222 0.0 0.0 0.00 0.02 0.02 60 1008.5
20260508184347 78 216 2.6 2.6 0.00 0.02 0.02 63 1008.9
20260508183843 78 226 2.6 2.6 0.00 0.02 0.02 61 1008.9
20260508183340 77 228 2.6 2.6 0.00 0.02 0.02 63 1008.9
20260508182836 77 52 0.0 0.0 0.00 0.02 0.02 62 1008.9
20260508182333 76 162 0.0 0.0 0.00 0.02 0.02 63 1009.2
20260508181828 77 206 4.3 5.2 0.00 0.02 0.02 61 1009.2
20260508181320 77 209 0.0 0.0 0.00 0.02 0.02 62 1009.2
20260508180817 77 105 0.0 0.0 0.00 0.02 0.02 63 1009.6
20260508180314 76 74 0.0 0.0 0.00 0.02 0.02 62 1009.6
20260508175810 76 216 0.0 0.0 0.00 0.02 0.02 63 1009.9
20260508175307 75 42 0.0 0.0 0.00 0.02 0.02 64 1009.6
20260508174805 76 312 0.0 0.0 0.00 0.02 0.02 63 1009.9
20260508174302 76 36 0.0 0.0 0.00 0.02 0.02 61 1009.9
20260508173758 76 272 0.0 0.0 0.00 0.02 0.02 62 1009.9
20260508173255 75 216 2.6 2.6 0.00 0.02 0.02 61 1009.9
20260508172751 74 289 0.0 0.0 0.00 0.02 0.02 65 1009.9
20260508172248 74 194 0.0 0.0 0.00 0.02 0.02 65 1010.2
20260508171745 75 209 1.7 1.7 0.00 0.02 0.02 66 1010.2
20260508171241 75 299 1.7 1.7 0.00 0.02 0.02 65 1010.2
20260508170738 74 229 0.0 0.0 0.00 0.02 0.02 64 1010.6
20260508170236 74 79 0.0 0.0 0.00 0.02 0.02 66 1010.6
20260508165732 74 209 0.0 0.0 0.00 0.02 0.02 67 1010.6
20260508165230 74 174 0.0 0.0 0.00 0.02 0.02 68 1010.9
20260508164726 74 258 0.0 0.0 0.00 0.02 0.02 65 1010.9
20260508164222 73 210 1.7 1.7 0.00 0.02 0.02 64 1011.2
20260508163720 73 132 0.0 0.0 0.00 0.02 0.02 65 1011.2
20260508163218 73 210 0.0 0.0 0.00 0.02 0.02 68 1011.2
20260508162713 72 246 2.6 3.5 0.00 0.02 0.02 70 1011.2
20260508162211 72 246 0.0 0.0 0.00 0.02 0.02 71 1011.6
20260508161708 71 246 0.0 0.0 0.00 0.02 0.02 71 1011.2
20260508161205 71 246 0.0 0.0 0.00 0.02 0.02 75 1011.2
20260508160703 71 246 0.0 0.0 0.00 0.02 0.02 73 1011.6
20260508160201 70 246 0.0 0.0 0.00 0.02 0.02 76 1011.6
20260508155657 70 34 1.7 1.7 0.00 0.02 0.02 72 1011.6
20260508155154 70 214 0.0 0.0 0.00 0.02 0.02 74 1011.6
20260508154651 70 96 0.0 0.0 0.00 0.02 0.02 75 1011.6
20260508154148 69 199 0.0 0.0 0.00 0.02 0.02 74 1012.0
20260508153645 68 199 0.0 0.0 0.00 0.02 0.02 76 1012.0
20260508153142 67 180 0.0 0.0 0.00 0.02 0.02 79 1012.0
20260508152638 67 180 0.0 0.0 0.00 0.02 0.02 79 1012.0
20260508152134 67 191 0.0 0.0 0.00 0.02 0.02 79 1012.0
20260508151631 66 178 0.0 0.0 0.00 0.02 0.02 79 1012.0
20260508151127 66 78 0.0 0.0 0.00 0.02 0.02 79 1012.0
20260508150624 66 78 0.0 0.0 0.00 0.02 0.02 79 1012.7
20260508150120 66 246 0.0 0.0 0.00 0.02 0.02 80 1012.7
20260508145611 67 246 0.0 0.0 0.00 0.02 0.02 78 1012.4
20260508145108 67 246 0.0 0.0 0.00 0.02 0.02 77 1012.0
20260508144606 67 257 0.0 0.0 0.00 0.02 0.02 80 1012.0
20260508144103 67 246 0.0 0.0 0.00 0.02 0.02 79 1012.4
20260508143600 66 102 0.0 0.0 0.00 0.02 0.02 82 1012.4
20260508143057 66 227 0.0 0.0 0.00 0.02 0.02 84 1012.4
20260508142553 65 227 0.0 0.0 0.00 0.02 0.02 85 1012.4
20260508142049 65 227 0.0 0.0 0.00 0.02 0.02 85 1012.4
20260508141546 66 227 0.0 0.0 0.00 0.02 0.02 84 1012.7
20260508141044 65 227 0.0 0.0 0.00 0.02 0.02 84 1012.7
20260508140541 66 227 0.0 0.0 0.00 0.02 0.02 81 1012.4
20260508140037 66 227 0.0 0.0 0.00 0.02 0.02 81 1012.7
20260508135532 65 228 0.0 0.0 0.00 0.02 0.02 81 1012.7
20260508135029 64 145 0.0 0.0 0.00 0.02 0.02 88 1012.7
20260508134526 64 145 0.0 0.0 0.00 0.02 0.02 88 1012.4
20260508134023 64 145 0.0 0.0 0.00 0.02 0.02 89 1012.7
20260508133520 63 145 0.0 0.0 0.00 0.02 0.02 90 1012.7
20260508133017 63 145 0.0 0.0 0.00 0.02 0.02 90 1012.7
20260508132515 63 145 0.0 0.0 0.00 0.02 0.02 90 1012.7
20260508132011 63 145 0.0 0.0 0.00 0.02 0.02 91 1012.7
20260508131506 63 113 0.0 0.0 0.00 0.02 0.02 91 1012.7
20260508131003 62 113 0.0 0.0 0.00 0.02 0.02 92 1012.4
20260508130501 62 113 0.0 0.0 0.00 0.02 0.02 93 1012.7
20260508125956 62 234 0.0 0.0 0.02 0.02 0.02 93 1012.7
20260508125453 61 234 0.0 0.0 0.02 0.02 0.02 93 1012.4
20260508124950 61 234 0.0 0.0 0.02 0.02 0.02 93 1012.4
20260508124448 61 234 0.0 0.0 0.02 0.02 0.02 94 1012.4
20260508123945 61 234 0.0 0.0 0.02 0.02 0.02 94 1012.7
20260508123444 61 234 0.0 0.0 0.02 0.02 0.02 94 1012.4
20260508122940 61 234 0.0 0.0 0.02 0.02 0.02 94 1012.4
20260508122437 61 234 0.0 0.0 0.02 0.02 0.02 94 1012.4
20260508121934 61 234 0.0 0.0 0.02 0.02 0.02 94 1012.7
20260508121432 61 234 0.0 0.0 0.02 0.02 0.02 94 1012.7
20260508120930 61 234 0.0 0.0 0.00 0.00 0.00 94 1012.7
20260508120427 60 234 0.0 0.0 0.00 0.00 0.00 94 1012.4
20260508115924 60 234 0.0 0.0 0.00 0.00 0.00 94 1012.7
20260508115423 60 234 0.0 0.0 0.00 0.00 0.00 94 1012.4
20260508114919 60 234 0.0 0.0 0.00 0.00 0.00 94 1012.4
20260508114416 60 234 0.0 0.0 0.00 0.00 0.00 94 1012.7
20260508113912 60 234 0.0 0.0 0.00 0.00 0.00 94 1012.7
20260508113410 60 234 0.0 0.0 0.00 0.00 0.00 94 1012.7